Probability
0 0 0 0 0 0 1 1 1 0 0 0 0 0 1 2 3 3 3 3 3 2 3 2 1 0 0 1 2 2 2 1 1 1 1 0 0 0 0 0 1 0 0
0 0 0 0 0 0 0 0 0 0 0 0 0 0 1 2 2 3 3 3 3 3 3 3 1 0 0 0 1 2 3 3 2 2 2 1 0 0 0 0 1 1 1
0 0 0 0 0 0 0 0 0 0 0 0 0 0 1 2 1 1 3 3 3 3 3 3 2 1 1 1 0 2 4 4 3 3 2 1 0 0 0 0 0 1 2
0 0 0 0 0 0 0 0 0 0 0 0 0 0 0 0 0 1 2 3 3 3 3 3 3 3 2 2 1 2 4 4 3 2 1 0 0 0 0 0 1 1 2
0 1 1 1 1 1 1 1 1 1 1 1 1 1 0 0 0 0 1 1 3 3 4 4 4 4 4 4 3 2 3 3 2 1 0 0 1 1 1 2 3 3 3
1 2 2 3 3 3 2 3 3 3 2 2 2 1 1 0 0 0 0 1 3 4 5 6 6 6 6 5 4 3 3 3 1 0 0 0 1 2 3 4 5 4 3
2 3 3 4 5 4 4 4 5 4 4 4 3 2 1 1 0 0 0 1 3 4 5 6 6 6 6 5 4 4 4 3 1 0 0 0 1 2 3 4 5 4 3
3 3 4 5 6 6 6 6 5 5 5 4 3 2 1 0 0 0 0 1 2 3 4 4 5 4 4 4 3 3 3 2 1 0 0 0 1 2 3 3 4 4 4
3 3 3 4 5 6 6 6 5 4 4 4 3 3 1 0 0 0 0 0 1 3 3 3 3 3 3 3 2 2 2 1 1 0 0 1 2 3 3 3 3 3 4
3 3 3 3 4 4 5 5 4 3 3 3 3 3 2 1 0 0 0 0 1 2 2 2 2 2 2 1 1 1 1 0 1 1 1 2 3 3 3 3 3 3 3
3 3 3 3 3 3 4 4 3 3 3 3 3 3 3 1 0 0 0 0 0 1 1 1 1 2 2 1 0 1 1 1 1 2 3 3 3 3 3 3 3 3 2
3 3 3 3 3 3 3 3 3 3 3 3 3 3 3 2 1 0 0 0 0 0 1 1 1 1 1 0 0 1 2 2 3 3 4 5 4 4 4 4 3 3 2
3 3 3 4 3 3 3 3 3 3 3 3 3 3 3 2 1 0 0 0 0 0 0 0 0 0 0 0 0 1 2 3 3 3 4 5 5 4 5 5 4 2 1
3 3 4 4 4 3 3 3 3 3 3 3 3 3 2 1 1 0 0 0 0 0 0 0 0 0 0 0 0 0 1 1 2 3 3 4 4 4 5 5 3 1 0
3 3 4 5 4 3 3 3 3 3 3 1 1 2 1 0 0 0 0 0 0 0 0 0 0 0 0 0 0 0 0 0 1 1 2 2 2 2 2 3 2 1 0
3 3 4 5 5 4 3 3 3 3 2 1 0 0 0 0 0 0 0 0 0 0 0 0 0 0 0 0 0 0 0 0 0 0 1 1 1 1 0 1 2 1 0
1 2 3 4 4 3 3 3 3 3 2 1 0 0 0 0 0 0 0 0 0 0 0 0 0 0 0 0 0 0 0 0 0 0 0 0 0 0 0 1 2 1 0
1 2 3 4 4 3 3 3 3 3 2 1 0 0 0 0 0 0 0 0 0 0 0 0 0 0 0 0 0 0 0 0 0 0 0 0 0 0 0 1 2 2 1
2 3 5 6 5 4 3 3 3 3 2 1 0 0 0 0 0 0 0 0 0 0 0 0 0 0 0 0 0 0 0 0 0 0 0 0 0 0 0 1 2 3 3
2 3 5 6 6 5 4 3 3 3 1 0 0 0 0 0 0 0 0 0 0 0 0 0 0 0 0 0 0 0 0 0 0 0 0 0 0 0 0 0 1 2 3
1 2 4 5 6 6 5 4 3 2 1 0 0 0 0 0 0 0 0 0 0 0 0 0 0 0 0 0 0 0 0 0 0 0 0 0 0 0 0 0 0 1 2
0 1 2 4 5 6 6 4 2 1 1 1 1 1 0 0 0 0 0 0 0 0 0 0 0 0 0 0 0 0 0 0 0 0 0 0 0 0 0 0 0 0 1
0 0 1 2 4 5 5 3 1 1 2 2 2 2 1 0 0 0 0 0 0 0 0 0 0 0 0 0 0 0 0 0 0 0 0 0 0 0 0 0 0 0 0
0 0 0 1 2 4 4 3 2 2 3 3 3 3 2 1 0 0 0 0 0 0 0 0 0 0 0 0 0 0 0 0 0 0 0 0 0 0 0 0 0 0 0
1 0 0 0 1 2 3 3 3 3 3 3 3 3 2 1 0 0 0 0 0 0 0 0 0 0 0 0 0 0 0 0 0 0 0 0 0 0 0 0 0 0 0
1 1 0 0 0 1 3 3 3 3 3 3 3 3 2 1 0 0 0 0 0 0 0 0 0 0 0 0 0 0 0 0 0 0 0 0 0 0 0 0 0 0 0
Wind_Speed
0 1 5 6 7 7 8 8 8 8 8 9 9 9 10 10 10 10 10 9 9 9 9 8 8 8 7 7 7 7 6 6 6 6 6 6 6 6 6 7 6 3 6
2 1 5 5 7 7 8 9 9 8 9 9 9 9 10 10 10 10 9 9 9 9 8 8 8 7 7 7 7 7 6 7 7 6 6 5 6 6 6 6 6 4 6
3 2 4 6 7 8 8 8 8 8 9 9 9 9 10 9 9 9 9 9 9 9 8 7 7 7 7 7 7 6 6 6 7 7 6 3 3 6 6 6 6 6 6
4 3 4 6 7 8 8 8 8 8 9 9 9 9 9 9 9 9 9 9 9 9 8 8 8 7 7 7 7 6 6 6 7 7 3 3 2 5 6 5 5 6 7
4 3 4 7 8 8 8 8 8 8 9 9 9 9 9 9 9 9 9 9 9 9 8 8 8 8 7 7 7 6 6 7 8 6 3 3 2 5 6 6 6 6 7
4 2 4 7 8 8 8 8 8 9 9 9 9 9 9 9 9 9 9 9 9 8 8 8 8 7 7 7 6 6 6 7 6 3 3 2 2 5 6 6 6 7 7
4 2 4 8 9 8 8 9 9 9 9 9 8 8 9 9 9 9 9 9 8 7 7 7 7 7 7 7 6 6 6 8 4 3 3 2 2 5 6 6 7 7 7
5 3 4 8 9 8 8 8 9 9 9 9 8 9 9 9 9 9 9 8 8 8 7 7 7 7 7 7 7 6 6 6 5 5 3 2 5 6 7 7 7 7 7
4 4 3 4 5 7 8 8 8 8 9 9 9 9 8 8 8 8 8 7 7 7 7 7 6 6 6 6 7 7 7 8 5 3 4 2 6 7 8 8 8 8 8
4 3 3 3 3 3 3 6 6 7 7 7 8 8 8 7 6 6 6 6 7 7 7 7 7 7 6 7 8 10 10 8 5 4 2 4 8 8 8 9 8 8 8
4 2 2 3 2 2 2 3 4 5 6 5 5 7 6 4 4 3 5 6 6 7 7 8 8 7 7 7 8 10 8 4 5 3 2 7 9 9 9 9 9 8 8
3 2 2 3 2 2 2 2 2 2 3 3 3 3 3 3 3 4 5 7 7 7 7 8 8 7 6 4 6 8 4 5 4 3 4 9 9 10 9 9 9 8 8
4 3 3 3 3 2 2 2 1 2 2 2 3 2 2 2 2 3 2 3 4 6 4 5 5 4 4 3 4 4 4 4 3 2 4 9 9 9 10 9 9 9 9
4 4 3 3 3 3 2 2 2 2 2 2 2 2 2 2 2 2 2 2 2 2 3 3 3 4 4 4 4 5 5 3 3 2 4 9 9 9 9 9 9 9 9
4 4 4 4 4 3 3 2 2 2 2 2 2 2 3 2 2 2 2 2 2 2 3 3 3 4 4 4 5 5 5 5 4 3 3 8 8 9 9 10 9 9 9
3 3 4 4 4 4 3 3 2 2 2 2 2 2 3 2 2 2 2 2 2 2 2 3 3 3 3 3 4 4 4 4 4 3 3 5 8 8 9 9 10 9 9
3 3 4 5 4 4 4 3 3 3 3 3 3 3 3 3 3 3 2 2 2 2 3 3 4 3 3 4 4 4 3 4 3 4 3 3 3 6 8 9 9 9 9
4 4 4 5 5 4 4 3 3 3 3 3 3 3 4 4 4 4 3 2 2 2 2 3 3 3 4 3 3 3 3 3 3 3 3 3 3 3 5 9 9 9 9
4 4 4 5 5 5 5 4 4 3 4 3 3 3 3 4 4 4 3 2 3 3 3 3 3 2 3 3 3 3 3 3 3 3 4 3 3 3 3 6 8 9 9
5 5 5 5 4 5 4 4 4 4 3 3 2 2 3 3 3 3 3 3 3 3 3 3 3 3 3 2 3 4 3 3 3 3 3 3 3 3 3 3 3 5 8
4 5 5 5 4 4 3 3 2 2 1 2 2 3 3 3 3 3 3 3 3 3 3 3 2 4 3 2 3 3 4 4 4 3 3 3 4 3 4 3 2 2 3
4 4 4 4 4 4 3 2 2 2 1 1 1 2 3 3 3 3 3 3 3 3 4 4 3 2 2 2 2 2 3 4 4 4 3 3 4 3 3 3 3 3 2
3 3 4 4 4 4 4 3 3 3 3 2 2 2 2 2 3 3 3 3 3 3 2 2 2 3 1 2 2 3 2 1 1 3 3 3 3 3 2 2 2 2 2
3 3 3 4 4 4 5 5 5 3 2 1 0 1 2 2 3 3 3 3 3 2 2 2 3 2 2 1 1 1 1 3 2 1 3 3 3 3 3 2 2 2 2
3 3 3 4 3 3 4 5 5 3 2 1 1 2 2 2 2 3 3 3 3 2 2 2 2 2 2 2 1 1 2 2 2 2 1 2 3 3 2 1 1 1 2
3 3 3 4 3 3 4 4 5 5 3 3 2 2 1 1 1 2 2 2 2 2 2 2 2 3 2 2 1 1 1 1 0 1 1 1 1 2 2 1 1 1 1
Wind_Direction
239 219 97 84 80 76 73 74 75 79 81 82 80 78 79 82 84 84 83 83 83 83 82 83 88 88 89 91 94 95 93 88 90 89 92 90 90 89 93 93 90 86 93
161 133 103 92 87 82 79 79 76 77 84 84 82 79 79 80 83 82 80 81 83 83 83 81 85 89 91 90 90 92 91 90 87 81 79 75 84 88 90 90 92 91 92
123 111 107 97 92 87 85 84 80 79 83 84 83 80 79 79 81 82 80 82 83 82 81 82 81 84 90 92 89 90 88 88 91 83 71 55 73 88 90 88 91 90 90
127 118 108 98 96 91 88 84 83 81 83 85 83 82 80 79 80 81 83 84 81 80 78 76 78 81 86 87 86 88 86 87 91 86 68 53 60 88 88 90 89 88 88
119 116 117 101 96 93 91 88 85 84 85 87 86 85 83 81 81 81 82 83 81 80 78 75 76 80 82 82 81 82 86 93 95 89 75 61 57 82 85 84 85 85 87
116 121 122 110 101 95 92 90 88 87 87 87 88 87 85 83 82 83 81 81 81 79 78 76 75 76 76 74 72 72 84 97 99 90 81 71 68 86 85 83 86 84 85
125 133 129 115 107 99 93 89 88 89 89 88 86 84 85 84 83 83 81 78 78 77 76 77 75 73 70 66 66 68 84 101 97 93 79 69 77 88 90 86 87 86 84
131 123 123 123 114 105 98 91 87 86 88 90 87 83 85 84 82 83 82 77 74 73 73 73 71 70 67 66 62 64 81 99 101 98 88 80 87 91 94 88 81 78 82
117 106 105 119 116 112 105 99 94 89 88 87 85 82 82 83 82 81 79 74 70 68 69 66 63 66 64 62 59 63 81 94 96 96 90 87 87 89 92 90 83 78 76
101 102 106 107 104 104 102 105 100 94 89 86 84 81 74 73 75 75 76 73 70 66 65 59 52 53 52 54 61 70 82 88 90 84 79 87 88 89 92 91 87 81 78
105 108 112 115 114 116 113 106 94 92 87 82 78 81 70 48 46 53 64 70 69 64 60 56 51 53 51 50 60 70 71 74 82 73 74 86 89 90 91 92 89 83 79
134 137 129 130 128 116 107 83 59 69 67 65 64 64 57 52 44 50 51 56 55 57 51 51 52 50 45 42 52 63 65 74 68 65 76 85 88 89 89 90 88 84 80
147 139 137 135 130 118 98 91 71 65 62 53 59 66 66 55 46 43 39 36 33 39 34 37 43 40 39 42 49 60 69 71 66 60 69 77 83 87 87 87 84 81 80
129 130 136 138 125 119 106 93 83 79 71 56 48 71 83 74 61 54 47 30 30 31 33 34 38 40 43 45 59 68 69 70 67 56 67 74 76 79 80 85 81 80 81
130 137 140 136 129 118 103 99 90 82 81 74 55 62 86 91 81 66 56 48 42 41 47 44 40 45 49 50 58 69 69 67 62 60 61 72 71 75 76 78 79 79 75
134 140 135 128 121 111 105 103 97 86 76 67 59 61 78 88 86 79 62 48 41 41 50 56 53 54 50 53 58 61 65 71 66 68 58 58 64 70 75 78 79 77 73
141 128 124 127 113 112 112 107 95 81 81 70 58 57 67 77 82 80 68 46 33 40 50 56 49 50 57 55 54 56 64 69 73 67 61 48 46 62 76 78 75 72 69
137 129 126 126 117 112 105 97 90 82 78 72 62 59 63 70 77 79 71 53 40 46 45 61 53 56 51 52 47 43 51 56 66 71 66 53 42 46 60 73 72 68 65
143 128 114 118 123 117 106 95 85 76 69 68 64 56 62 70 78 84 76 54 53 55 44 59 58 65 64 54 56 49 43 46 46 63 59 54 51 54 50 60 65 65 63
138 125 118 115 115 110 100 85 72 67 61 59 63 56 63 67 72 83 78 57 59 61 47 51 66 58 67 62 66 51 34 36 41 48 52 51 48 56 57 57 52 56 60
125 120 123 122 123 117 109 102 94 81 63 54 60 61 67 71 73 78 78 68 63 69 61 59 76 66 49 47 65 40 19 28 39 34 31 44 45 47 56 56 51 48 45
137 137 138 141 137 134 134 133 131 123 93 83 49 50 57 73 80 89 88 82 73 70 57 49 63 74 49 46 86 78 28 8 14 20 24 42 42 43 51 53 55 57 48
128 143 144 149 145 140 133 114 91 64 48 37 32 30 29 74 87 90 95 93 85 83 79 57 65 85 85 25 66 117 123 179 330 353 15 27 25 32 29 39 47 46 51
153 148 141 142 139 137 132 127 127 124 129 181 170 71 33 61 76 86 95 92 90 85 87 81 71 74 99 77 12 40 126 154 139 348 344 358 9 21 12 30 36 31 35
154 147 145 132 126 131 136 139 135 132 145 132 84 76 54 39 62 80 95 93 92 90 90 77 69 72 86 108 84 42 51 53 83 136 265 328 349 349 357 6 45 31 22
145 129 121 125 124 135 136 138 145 149 143 125 111 110 92 51 54 67 90 90 93 94 95 92 83 82 79 86 82 82 107 111 140 126 167 267 315 319 342 352 23 19 10